Weather History for KMQY - September, 2013

Change the Weather History Date:

Sunday, September 15, 2013

  Actual Average Record
Temperature  
Mean Temperature 68 °F -  
Max Temperature 84 °F 80 °F 97 °F (2010)
Min Temperature 52 °F 61 °F 52 °F (2013)
Cooling Degree Days 2    
Growing Degree Days 18 (Base 50)    
Moisture  
Dew Point 58 °F    
Average Humidity 74    
Maximum Humidity 100    
Minimum Humidity 44    
Precipitation  
Precipitation 0.00 in - - ()
Sea Level Pressure  
Sea Level Pressure 30.13 in    
Wind  
Wind Speed 2 mph (SSW)    
Max Wind Speed 8 mph    
Max Gust Speed -    
Visibility 10 miles    
Events      
Averages and records for this station are not official NWS values.
T = Trace of Precipitation, MM = Missing Value Source: NWS Daily Summary

Daily Weather History Graph

Daily Weather History Graph

Search for Another Location

Airport or City:

Trip Planner

Search our weather history database for the weather conditions in past years. The results will help you decide how hot, cold, wet, or windy it might be!

Date:

Astronomy

Sep. 15, 2013 Rise Set
Actual Time 6:28 AM CDT 6:52 PM CDT
Civil Twilight 6:03 AM CDT 7:18 PM CDT
Nautical Twilight 5:32 AM CDT 7:48 PM CDT
Astronomical Twilight 5:02 AM CDT 8:19 PM CDT
Moon 4:14 PM CDT (9/15) 2:12 AM CDT (9/15)
Length of Visible Light 13h 15m
Length of Day
12h 24m
Waxing Gibbous, 82% of the Moon is Illuminated
Sep 15
Waxing Gibbous
Sep 19
Full
Sep 26
Last Quarter
Oct 4
New
Oct 11
First Quarter

Hourly Weather History & Observations

Time (CDT) Temp. Heat Index Dew Point Humidity Pressure Visibility Wind Dir Wind Speed Gust Speed Precip Events Conditions
12:56 AM 54.9 °F - 52.9 °F 93% 30.11 in 10.0 mi Calm Calm - N/A   Clear
1:56 AM 54.9 °F - 52.9 °F 93% 30.12 in 10.0 mi Calm Calm - N/A   Clear
2:56 AM 54.0 °F - 52.0 °F 93% 30.12 in 10.0 mi Calm Calm - N/A   Clear
3:56 AM 52.9 °F - 52.9 °F 100% 30.13 in 9.0 mi Calm Calm - N/A   Clear
4:56 AM 52.9 °F - 52.9 °F 100% 30.14 in 10.0 mi Calm Calm - N/A   Clear
5:56 AM 52.0 °F - 52.0 °F 100% 30.15 in 10.0 mi Calm Calm - N/A   Clear
6:56 AM 52.9 °F - 52.9 °F 100% 30.16 in 10.0 mi Calm Calm - N/A   Clear
7:56 AM 57.9 °F - 55.9 °F 93% 30.16 in 10.0 mi SSE 5.8 mph - N/A   Clear
8:56 AM 64.9 °F - 57.9 °F 78% 30.17 in 10.0 mi Calm Calm - N/A   Clear
9:56 AM 72.0 °F - 61.0 °F 68% 30.17 in 10.0 mi South 6.9 mph - N/A   Clear
10:56 AM 77.0 °F - 63.0 °F 62% 30.16 in 10.0 mi Variable 4.6 mph - N/A   Clear
11:56 AM 79.9 °F - 59.9 °F 50% 30.14 in 10.0 mi SW 6.9 mph - N/A   Clear
12:56 PM 81.9 °F 82.2 °F 59.9 °F 47% 30.14 in 10.0 mi SSW 8.1 mph - N/A   Clear
1:56 PM 82.9 °F 83.2 °F 59.9 °F 46% 30.12 in 10.0 mi Variable 4.6 mph - N/A   Clear
2:56 PM 82.9 °F 82.8 °F 59.0 °F 44% 30.11 in 10.0 mi South 5.8 mph - N/A   Clear
3:56 PM 83.8 °F 84.1 °F 61.0 °F 46% 30.10 in 10.0 mi SSW 5.8 mph - N/A   Scattered Clouds
4:56 PM 83.8 °F 83.8 °F 59.9 °F 44% 30.10 in 10.0 mi West 8.1 mph - N/A   Clear
5:56 PM 82.9 °F 82.8 °F 59.0 °F 44% 30.10 in 10.0 mi SW 5.8 mph - N/A   Clear
6:56 PM 72.9 °F - 61.9 °F 68% 30.11 in 10.0 mi Calm Calm - N/A   Clear
7:56 PM 70.0 °F - 61.9 °F 75% 30.12 in 10.0 mi Calm Calm - N/A   Clear
8:56 PM 68.0 °F - 61.9 °F 81% 30.13 in 10.0 mi Calm Calm - N/A   Clear
9:56 PM 66.9 °F - 61.9 °F 84% 30.12 in 10.0 mi Calm Calm - N/A   Clear
10:56 PM 66.9 °F - 61.0 °F 81% 30.13 in 10.0 mi Calm Calm - N/A   Clear
11:56 PM 63.0 °F - 59.9 °F 90% 30.14 in 10.0 mi Calm Calm - N/A   Clear